GW3653 Weather Reports


time (UTC)temp
F
wind
direction
speed
knots
gust
knots
rain 1hr
in
rain 24hr
in
rain mn
in
humidity
%
barometer
mb
20260506175519 58 90 0.9 3.5 0.02 0.15 0.09 95 1033.4
20260506174559 58 113 0.9 6.1 0.02 0.15 0.09 95 1033.4
20260506173519 58 90 1.7 6.1 0.01 0.14 0.08 95 1033.6
20260506172519 58 90 1.7 5.2 0.04 0.14 0.08 95 1033.5
20260506171519 58 0.0 2.6 0.06 0.14 0.08 95 1033.6
20260506170519 58 113 0.9 4.3 0.07 0.13 0.07 95 1033.6
20260506165519 58 90 1.7 6.1 0.07 0.13 0.07 95 1033.6
20260506164519 58 0.0 0.0 0.07 0.13 0.07 94 1033.7
20260506163519 57 0.0 0.9 0.08 0.13 0.07 94 1033.7
20260506162559 57 0.0 2.6 0.05 0.10 0.04 94 1033.8
20260506161519 57 113 0.9 2.6 0.03 0.09 0.02 94 1033.9
20260506160519 57 113 0.9 3.5 0.01 0.06 0.00 94 1033.8
20260506155519 57 135 0.9 3.5 0.02 0.06 0.06 94 1033.9
20260506154519 57 90 0.9 2.6 0.02 0.06 0.06 93 1033.8
20260506153519 57 113 0.9 3.5 0.02 0.06 0.06 93 1033.8
20260506152519 57 0.0 1.7 0.02 0.06 0.06 93 1033.9
20260506151519 58 113 1.7 7.8 0.03 0.06 0.06 92 1033.9
20260506150519 58 0.0 0.0 0.04 0.06 0.06 92 1034.0
20260506145519 58 0.0 0.9 0.03 0.04 0.04 91 1034.0
20260506144519 58 0.0 0.0 0.03 0.04 0.04 91 1034.0
20260506143539 58 0.0 0.0 0.04 0.04 0.04 91 1034.2
20260506142519 58 0.0 0.0 0.04 0.04 0.04 91 1034.2
20260506141519 58 0.0 0.9 0.02 0.02 0.02 90 1034.2
20260506140519 58 0.0 1.7 0.02 0.02 0.02 90 1034.2
20260506135519 58 0.0 0.9 0.01 0.01 0.01 89 1034.2
20260506134520 58 113 0.9 5.2 0.01 0.01 0.01 89 1034.2
20260506133539 58 0.0 0.9 0.00 0.00 0.00 89 1034.2
20260506132519 57 0.0 0.0 0.00 0.00 0.00 88 1034.2
20260506131519 58 0.0 1.7 0.00 0.00 0.00 88 1034.2
20260506130519 58 0.0 0.0 0.00 0.00 0.00 88 1034.1
20260506125539 58 0.0 0.0 0.00 0.00 0.00 88 1034.2
20260506124518 58 0.0 0.0 0.00 0.00 0.00 88 1034.2
20260506123519 58 0.0 0.9 0.00 0.00 0.00 88 1034.1
20260506122519 58 0.0 0.0 0.00 0.00 0.00 87 1034.0
20260506121519 58 0.0 0.0 0.00 0.00 0.00 88 1033.9
20260506120519 58 0.0 0.9 0.00 0.00 0.00 88 1033.9
20260506115518 57 0.0 0.0 0.00 0.00 0.00 88 1033.7
20260506114519 57 0.0 0.0 0.00 0.00 0.00 87 1033.7
20260506113519 58 0.0 0.0 0.00 0.00 0.00 87 1033.6
20260506112519 58 0.0 0.0 0.00 0.00 0.00 87 1033.5
20260506111519 58 0.0 0.0 0.00 0.00 0.00 86 1033.6
20260506110538 58 0.0 0.0 0.00 0.00 0.00 86 1033.5
20260506105518 58 0.0 0.0 0.00 0.00 0.00 85 1033.4
20260506104519 58 0.0 0.9 0.00 0.00 0.00 85 1033.5
20260506103518 58 0.0 0.0 0.00 0.00 0.00 84 1033.5
20260506102518 59 0.0 0.0 0.00 0.00 0.00 84 1033.4
20260506101518 59 0.0 0.9 0.00 0.00 0.00 84 1033.4
20260506100518 59 0.0 3.5 0.00 0.00 0.00 84 1033.4
20260506095518 59 0.0 1.7 0.00 0.00 0.00 83 1033.2
20260506094538 60 0.0 0.9 0.00 0.00 0.00 83 1033.3
20260506093518 60 0.0 0.9 0.00 0.00 0.00 83 1033.2
20260506092518 60 0.0 3.5 0.00 0.00 0.00 82 1033.1
20260506091519 61 113 0.9 4.3 0.00 0.00 0.00 82 1032.9
20260506090538 61 0.0 2.6 0.00 0.00 0.00 82 1032.9
20260506085538 61 90 0.9 2.6 0.00 0.00 0.00 81 1032.8
20260506084518 61 113 0.9 2.6 0.00 0.00 0.00 80 1032.7
20260506083518 62 113 0.9 4.3 0.00 0.00 0.00 79 1032.6
20260506082518 62 113 0.9 3.5 0.00 0.00 0.00 79 1032.6
20260506081518 63 113 0.9 3.5 0.00 0.00 0.00 78 1032.6
20260506080518 63 113 0.9 3.5 0.00 0.00 0.00 78 1032.6
20260506073518 64 0.0 1.7 0.00 0.00 0.00 77 1032.4
20260506072518 63 113 0.9 3.5 0.00 0.00 0.00 77 1032.5
20260506071518 63 113 0.9 4.3 0.00 0.00 0.00 77 1032.4
20260506070518 62 90 0.9 3.5 0.00 0.00 0.00 77 1032.3
20260506061518 64 113 0.9 2.6 0.00 0.00 0.00 77 1032.2
20260506060518 63 113 0.9 3.5 0.00 0.00 0.00 78 1032.2
20260506050518 62 0.0 3.5 0.00 0.00 0.00 79 1032.4
20260506044518 63 113 0.9 2.6 0.00 0.00 0.00 78 1032.6
20260506043518 63 113 0.9 1.7 0.00 0.00 0.00 76 1032.6
20260506042518 63 113 0.9 2.6 0.00 0.00 0.00 77 1032.7
20260506041517 63 0.0 1.7 0.00 0.00 0.00 77 1032.7
20260506040517 62 113 0.9 2.6 0.00 0.00 0.00 77 1032.9
20260506035538 63 113 0.9 2.6 0.00 0.00 0.00 76 1032.9
20260506034518 62 113 0.9 3.5 0.00 0.00 0.00 76 1033.0
20260506033518 63 113 0.9 2.6 0.00 0.00 0.00 76 1033.0
20260506032517 63 113 0.9 3.5 0.00 0.00 0.00 76 1033.1
20260506031518 63 0.0 1.7 0.00 0.00 0.00 76 1033.2
20260506030517 63 0.0 0.9 0.00 0.00 0.00 76 1033.1
20260506025517 63 0.0 1.7 0.00 0.00 0.00 75 1033.2
20260506024517 63 0.0 1.7 0.00 0.00 0.00 74 1033.1
20260506023518 63 0.0 0.9 0.00 0.00 0.00 73 1033.1
20260506022518 63 0.0 0.9 0.00 0.00 0.00 74 1033.2
20260506021517 62 0.0 0.9 0.00 0.00 0.00 75 1033.2
20260506020518 61 0.0 0.0 0.00 0.00 0.00 76 1033.2
20260506015520 61 0.0 0.0 0.00 0.00 0.00 76 1033.4
20260506014519 60 0.0 0.0 0.00 0.00 0.00 76 1033.4
20260506013519 60 0.0 0.0 0.00 0.00 0.00 76 1033.4
20260506012557 60 0.0 0.0 0.00 0.00 0.00 77 1033.5
20260506011520 60 0.0 0.0 0.00 0.00 0.00 78 1033.4
20260506010519 59 0.0 0.0 0.00 0.00 0.00 79 1033.5
20260506005519 59 0.0 0.0 0.00 0.00 0.00 80 1033.5
20260506004519 58 0.0 0.0 0.00 0.00 0.00 82 1033.3
20260506003519 57 0.0 0.0 0.00 0.00 0.00 83 1033.2
20260506002518 57 0.0 0.0 0.00 0.00 0.00 85 1033.2
20260506001539 57 0.0 0.0 0.00 0.00 0.00 86 1033.0
20260506000539 56 0.0 0.0 0.00 0.00 0.00 86 1032.8
20260505235519 56 0.0 0.0 0.00 0.00 0.00 86 1032.7
20260505234519 56 0.0 0.0 0.00 0.00 0.00 86 1032.6
20260505233519 55 0.0 0.0 0.00 0.00 0.00 85 1032.4
20260505232519 55 0.0 0.0 0.00 0.00 0.00 85 1032.4
20260505231539 55 0.0 0.0 0.00 0.00 0.00 84 1032.3
20260505230519 55 0.0 0.0 0.00 0.00 0.00 84 1032.2
20260505225519 55 0.0 0.0 0.00 0.00 0.00 84 1032.1
20260505224519 55 0.0 0.0 0.00 0.00 0.00 84 1031.8
20260505223519 55 0.0 0.0 0.00 0.00 0.00 84 1031.7
20260505222519 55 0.0 0.0 0.00 0.00 0.00 84 1031.7
20260505221519 55 0.0 0.0 0.00 0.00 0.00 84 1031.7
20260505220519 55 0.0 0.0 0.00 0.00 0.00 83 1031.6
20260505215539 55 0.0 0.0 0.00 0.00 0.00 82 1031.6
20260505214519 55 0.0 0.0 0.00 0.00 0.00 81 1031.6
20260505213519 55 0.0 0.0 0.00 0.00 0.00 81 1031.5
20260505212519 55 0.0 0.0 0.00 0.00 0.00 81 1031.5
20260505211519 55 0.0 0.0 0.00 0.00 0.00 81 1031.4
20260505210519 55 0.0 0.0 0.00 0.00 0.00 81 1031.3
20260505205519 55 0.0 0.9 0.00 0.00 0.00 81 1031.3
20260505204518 55 0.0 0.0 0.00 0.00 0.00 80 1031.2
20260505203519 55 0.0 0.0 0.00 0.00 0.00 80 1031.2
20260505202519 55 0.0 0.0 0.00 0.00 0.00 79 1031.1
20260505201519 55 0.0 0.0 0.00 0.00 0.00 78 1031.1
20260505200539 55 0.0 0.0 0.00 0.00 0.00 78 1031.0
20260505195519 56 0.0 0.9 0.00 0.00 0.00 78 1030.9
20260505194519 56 0.0 0.0 0.00 0.00 0.00 77 1030.9
20260505193519 56 0.0 0.0 0.00 0.00 0.00 77 1030.8
20260505192518 56 0.0 0.0 0.00 0.00 0.00 76 1030.8
20260505191519 57 0.0 0.9 0.00 0.00 0.00 77 1030.8
20260505190518 56 0.0 1.7 0.00 0.00 0.00 78 1030.8
20260505185538 57 0.0 0.9 0.00 0.00 0.00 79 1030.8
20260505184518 57 0.0 0.9 0.00 0.00 0.00 78 1030.8
20260505183518 57 0.0 0.9 0.00 0.00 0.00 77 1030.7
20260505182518 57 0.0 0.9 0.00 0.00 0.00 76 1031.0
20260505181519 57 0.0 0.0 0.00 0.00 0.00 76 1031.1
20260505180518 57 0.0 0.0 0.00 0.00 0.00 76 1031.0